Weather in Kyundyade

Russia / Sakha (Yakutia) Republic     63°12′58″N   118°08′18″E
temp.,
°C
wind,
m/s
gust,
m/s
humid.,
%
clouds,
%
prec.,
mm/h
press.,
hPa
HPBL,
m
4 march, thu
thu400:00−36w239664 0.0 102644
03:00−33wnw379680 0.0 1026283
06:00−32wnw3796100 0.1 1027337
09:00−32wnw3796100 0.3 1028352
12:00−29w4893100 0.1 1028426
15:00−27w4889100 0.1 1028518
18:00−27w499094 0.0 1029416
21:00−30w399157 0.0 1031235
5 march, fri
fri500:00−32wsw38920 0.0 1032209
03:00−34wsw37930 0.0 1033141
06:00−35wsw37930 0.0 1033139
09:00−35sw36950 0.0 1033150
12:00−29wsw36930 0.0 1032368
15:00−25sw359135 0.0 1031425
18:00−25ssw229536 0.0 103025
21:00−29ssw129918 0.0 103019
6 march, sat
sat600:00−30s11994 0.0 102919
03:00−31se129711 0.0 102919
06:00−31se129652 0.0 102719
09:00−29e229448 0.0 102629
12:00−23e249069 0.0 1024262
15:00−18e358762 0.0 1022390
18:00−19e369251 0.0 1021219
21:00−23e239567 0.0 102156
7 march, sun
sun700:00−24e239489 0.0 102067
03:00−25ene239693 0.0 102067
06:00−24ene359799 0.1 1019151
09:00−23ene359699 0.1 1019168
12:00−19ene359697 0.1 1017255
15:00−16ene359498 0.1 1016373
18:00−16ene3695100 0.1 1015316
21:00−18ene3597100 0.3 1015168
8 march, mon
mon800:00−19ne249898 0.1 1014111
03:00−20ne239899 0.2 101490
06:00−21ne239999 0.0 101456
09:00−21ne229998 0.1 101445
12:00−16ne119396 0.1 1013227
15:00−13nne019198 0.1 1013298
18:00−13nne119799 0.1 101228
21:00−16e119895 0.1 101220